| time (UTC) | temp F | wind direction | speed knots | gust knots | rain 1hr in | rain 24hr in | rain mn in | humidity % | barometer mb |
| 20260507211459 | 58 | 197 | 0.0 | 0.9 | 0.00 | 0.09 | 0.09 | 77 | 1016.9 |
| 20260507210447 | 58 | 60 | 0.0 | 0.0 | 0.00 | 0.09 | 0.09 | 78 | 1016.9 |
| 20260507205941 | 58 | 60 | 0.0 | 0.0 | 0.00 | 0.09 | 0.09 | 78 | 1016.9 |
| 20260507205435 | 58 | 60 | 0.0 | 1.7 | 0.00 | 0.09 | 0.09 | 77 | 1016.8 |
| 20260507204929 | 58 | 60 | 0.0 | 1.7 | 0.00 | 0.09 | 0.09 | 76 | 1016.8 |
| 20260507204423 | 58 | 79 | 0.0 | 1.7 | 0.00 | 0.09 | 0.09 | 76 | 1016.8 |
| 20260507203918 | 58 | 83 | 0.0 | 0.9 | 0.00 | 0.09 | 0.09 | 76 | 1016.7 |
| 20260507203412 | 59 | 210 | 0.0 | 0.0 | 0.00 | 0.09 | 0.09 | 75 | 1016.6 |
| 20260507202905 | 59 | 210 | 0.0 | 1.7 | 0.00 | 0.09 | 0.09 | 74 | 1016.6 |
| 20260507202359 | 59 | 210 | 0.0 | 3.5 | 0.00 | 0.09 | 0.09 | 73 | 1016.5 |
| 20260507201853 | 59 | 206 | 0.9 | 4.3 | 0.00 | 0.09 | 0.09 | 73 | 1016.3 |
| 20260507201347 | 59 | 221 | 0.9 | 4.3 | 0.00 | 0.09 | 0.09 | 73 | 1016.3 |
| 20260507200841 | 59 | 179 | 1.7 | 3.5 | 0.00 | 0.09 | 0.09 | 73 | 1016.2 |
| 20260507200338 | 59 | 205 | 1.7 | 6.1 | 0.00 | 0.09 | 0.09 | 74 | 1016.2 |
| 20260507195829 | 59 | 230 | 2.6 | 6.1 | 0.00 | 0.09 | 0.09 | 74 | 1016.1 |
| 20260507195322 | 58 | 222 | 1.7 | 5.2 | 0.00 | 0.09 | 0.09 | 75 | 1016.1 |
| 20260507194817 | 58 | 222 | 1.7 | 5.2 | 0.00 | 0.09 | 0.09 | 75 | 1016.0 |
| 20260507194312 | 59 | 223 | 2.6 | 6.1 | 0.00 | 0.09 | 0.09 | 75 | 1015.9 |
| 20260507193805 | 59 | 224 | 3.5 | 7.0 | 0.00 | 0.09 | 0.09 | 75 | 1015.9 |
| 20260507193259 | 59 | 214 | 2.6 | 7.0 | 0.00 | 0.09 | 0.09 | 75 | 1015.9 |
| 20260507192753 | 59 | 199 | 2.6 | 7.0 | 0.00 | 0.09 | 0.09 | 76 | 1015.8 |
| 20260507192246 | 58 | 217 | 1.7 | 5.2 | 0.00 | 0.09 | 0.09 | 76 | 1015.7 |
| 20260507191740 | 58 | 148 | 1.7 | 5.2 | 0.00 | 0.09 | 0.09 | 77 | 1015.7 |
| 20260507191235 | 58 | 216 | 1.7 | 5.2 | 0.00 | 0.09 | 0.09 | 77 | 1015.8 |
| 20260507190729 | 58 | 205 | 0.9 | 4.3 | 0.00 | 0.09 | 0.09 | 78 | 1015.6 |
| 20260507190223 | 58 | 207 | 0.0 | 2.6 | 0.00 | 0.09 | 0.09 | 78 | 1015.6 |
| 20260507185717 | 59 | 210 | 0.0 | 0.9 | 0.00 | 0.09 | 0.09 | 78 | 1015.5 |
| 20260507185211 | 59 | 215 | 0.0 | 0.9 | 0.00 | 0.09 | 0.09 | 78 | 1015.5 |
| 20260507184705 | 59 | 215 | 0.0 | 0.9 | 0.00 | 0.09 | 0.09 | 78 | 1015.4 |
| 20260507184159 | 59 | 215 | 0.0 | 0.0 | 0.00 | 0.09 | 0.09 | 79 | 1015.5 |
| 20260507183653 | 59 | 220 | 0.0 | 0.0 | 0.00 | 0.09 | 0.09 | 79 | 1015.4 |
| 20260507183147 | 59 | 220 | 0.0 | 0.0 | 0.00 | 0.09 | 0.09 | 79 | 1015.4 |
| 20260507182641 | 59 | 220 | 0.0 | 2.6 | 0.00 | 0.09 | 0.09 | 78 | 1015.3 |
| 20260507182135 | 59 | 82 | 0.0 | 2.6 | 0.00 | 0.09 | 0.09 | 77 | 1015.2 |
| 20260507181629 | 59 | 258 | 0.0 | 0.9 | 0.00 | 0.09 | 0.09 | 79 | 1015.1 |
| 20260507181124 | 59 | 258 | 0.0 | 0.0 | 0.00 | 0.09 | 0.09 | 79 | 1015.2 |
| 20260507180617 | 59 | 258 | 0.0 | 0.0 | 0.00 | 0.09 | 0.09 | 79 | 1015.2 |
| 20260507180110 | 59 | 258 | 0.0 | 0.0 | 0.00 | 0.09 | 0.09 | 79 | 1015.3 |
| 20260507175605 | 59 | 258 | 0.0 | 0.9 | 0.00 | 0.09 | 0.09 | 78 | 1015.3 |
| 20260507175059 | 60 | 261 | 0.0 | 0.9 | 0.00 | 0.09 | 0.09 | 78 | 1015.2 |
| 20260507174555 | 59 | 229 | 0.0 | 0.9 | 0.00 | 0.09 | 0.09 | 78 | 1015.1 |
| 20260507174049 | 60 | 229 | 0.0 | 0.0 | 0.00 | 0.09 | 0.09 | 78 | 1014.9 |
| 20260507173541 | 60 | 229 | 0.0 | 0.0 | 0.00 | 0.09 | 0.09 | 78 | 1014.9 |
| 20260507173035 | 60 | 229 | 0.0 | 0.9 | 0.00 | 0.09 | 0.09 | 78 | 1014.8 |
| 20260507172529 | 60 | 229 | 0.0 | 0.9 | 0.00 | 0.09 | 0.09 | 78 | 1014.7 |
| 20260507172023 | 60 | 229 | 0.0 | 0.9 | 0.00 | 0.09 | 0.09 | 78 | 1014.7 |
| 20260507171517 | 60 | 77 | 0.0 | 0.9 | 0.00 | 0.09 | 0.09 | 78 | 1014.6 |
| 20260507171011 | 60 | 77 | 0.0 | 0.9 | 0.00 | 0.09 | 0.09 | 77 | 1014.4 |
| 20260507170504 | 60 | 77 | 0.0 | 0.9 | 0.00 | 0.09 | 0.09 | 77 | 1014.4 |
| 20260507170000 | 59 | 213 | 0.0 | 0.9 | 0.00 | 0.09 | 0.09 | 79 | 1014.3 |
| 20260507165453 | 59 | 213 | 0.0 | 0.0 | 0.01 | 0.09 | 0.09 | 79 | 1014.4 |
| 20260507164949 | 59 | 213 | 0.0 | 0.9 | 0.01 | 0.09 | 0.09 | 80 | 1014.4 |
| 20260507164441 | 59 | 213 | 0.0 | 0.9 | 0.09 | 0.09 | 0.09 | 82 | 1014.4 |
| 20260507163935 | 59 | 213 | 0.0 | 0.9 | 0.09 | 0.09 | 0.09 | 81 | 1014.3 |
| 20260507163429 | 59 | 215 | 0.9 | 3.5 | 0.09 | 0.09 | 0.09 | 80 | 1014.3 |
| 20260507162923 | 60 | 210 | 0.9 | 3.5 | 0.09 | 0.09 | 0.09 | 79 | 1014.3 |
| 20260507162639 | 60 | 207 | 1.7 | 5.2 | 0.09 | 0.09 | 0.09 | 78 | 1014.2 |
| 20260507162421 | 60 | 207 | 1.7 | 5.2 | 0.09 | 0.09 | 0.09 | 78 | 1014.2 |
| 20260507161911 | 60 | 125 | 1.7 | 5.2 | 0.09 | 0.09 | 0.09 | 77 | 1014.1 |
| 20260507161405 | 60 | 206 | 0.9 | 3.5 | 0.09 | 0.09 | 0.09 | 75 | 1014.0 |
| 20260507160858 | 60 | 63 | 0.9 | 6.1 | 0.09 | 0.09 | 0.09 | 74 | 1014.0 |
| 20260507160353 | 61 | 134 | 4.3 | 8.7 | 0.09 | 0.10 | 0.09 | 72 | 1013.9 |
| 20260507155847 | 62 | 91 | 5.2 | 8.7 | 0.09 | 0.10 | 0.09 | 65 | 1013.8 |
| 20260507155344 | 61 | 54 | 3.5 | 15.6 | 0.09 | 0.09 | 0.09 | 66 | 1013.8 |
| 20260507154836 | 63 | 77 | 3.5 | 15.6 | 0.08 | 0.09 | 0.08 | 58 | 1014.3 |
| 20260507154329 | 65 | 239 | 3.5 | 8.7 | 0.01 | 0.02 | 0.01 | 62 | 1014.2 |
| 20260507153824 | 67 | 222 | 2.6 | 7.0 | 0.00 | 0.01 | 0.00 | 56 | 1014.0 |
| 20260507153316 | 68 | 178 | 1.7 | 5.2 | 0.00 | 0.01 | 0.00 | 52 | 1013.7 |
| 20260507152812 | 68 | 103 | 1.7 | 5.2 | 0.00 | 0.01 | 0.00 | 51 | 1013.6 |
| 20260507152306 | 69 | 128 | 1.7 | 4.3 | 0.00 | 0.01 | 0.00 | 50 | 1013.5 |
| 20260507152247 | 69 | 122 | 1.7 | 4.3 | 0.00 | 0.01 | 0.00 | 49 | 1013.4 |
| 20260507151253 | 69 | 86 | 0.9 | 3.5 | 0.00 | 0.01 | 0.00 | 49 | 1013.4 |
| 20260507150747 | 69 | 72 | 0.9 | 3.5 | 0.00 | 0.01 | 0.00 | 48 | 1013.4 |
| 20260507150241 | 69 | 77 | 0.9 | 5.2 | 0.00 | 0.01 | 0.00 | 47 | 1013.4 |
| 20260507145735 | 69 | 261 | 1.7 | 5.2 | 0.00 | 0.01 | 0.00 | 47 | 1013.3 |
| 20260507145228 | 69 | 73 | 1.7 | 5.2 | 0.00 | 0.01 | 0.00 | 47 | 1013.3 |
| 20260507144723 | 70 | 162 | 2.6 | 6.1 | 0.00 | 0.01 | 0.00 | 47 | 1013.3 |
| 20260507144217 | 70 | 84 | 2.6 | 6.1 | 0.00 | 0.01 | 0.00 | 46 | 1013.4 |
| 20260507143711 | 71 | 91 | 3.5 | 7.0 | 0.00 | 0.01 | 0.00 | 46 | 1013.3 |
| 20260507142659 | 71 | 82 | 4.3 | 8.7 | 0.00 | 0.01 | 0.00 | 45 | 1013.3 |
| 20260507142153 | 71 | 87 | 5.2 | 10.4 | 0.00 | 0.01 | 0.00 | 45 | 1013.4 |
| 20260507141646 | 71 | 90 | 4.3 | 10.4 | 0.00 | 0.01 | 0.00 | 45 | 1013.3 |
| 20260507141141 | 71 | 90 | 2.6 | 8.7 | 0.00 | 0.01 | 0.00 | 45 | 1013.3 |
| 20260507140635 | 72 | 88 | 2.6 | 7.8 | 0.00 | 0.01 | 0.00 | 44 | 1013.4 |
| 20260507140129 | 72 | 236 | 1.7 | 4.3 | 0.00 | 0.01 | 0.00 | 46 | 1013.3 |
| 20260507135627 | 71 | 88 | 1.7 | 6.1 | 0.00 | 0.01 | 0.00 | 45 | 1013.3 |
| 20260507135130 | 71 | 65 | 1.7 | 6.1 | 0.00 | 0.01 | 0.00 | 44 | 1013.4 |
| 20260507134627 | 72 | 103 | 1.7 | 4.3 | 0.00 | 0.01 | 0.00 | 43 | 1013.4 |
| 20260507134126 | 72 | 282 | 0.9 | 4.3 | 0.00 | 0.01 | 0.00 | 45 | 1013.4 |
| 20260507133628 | 72 | 133 | 0.9 | 3.5 | 0.00 | 0.01 | 0.00 | 44 | 1013.5 |
| 20260507133127 | 73 | 233 | 0.9 | 3.5 | 0.00 | 0.01 | 0.00 | 43 | 1013.6 |
| 20260507132625 | 73 | 234 | 0.9 | 3.5 | 0.00 | 0.01 | 0.00 | 44 | 1013.6 |
| 20260507132125 | 72 | 108 | 0.9 | 4.3 | 0.00 | 0.01 | 0.00 | 45 | 1013.6 |
| 20260507131625 | 71 | 108 | 0.9 | 4.3 | 0.00 | 0.01 | 0.00 | 45 | 1013.6 |
| 20260507131125 | 70 | 99 | 0.9 | 4.3 | 0.00 | 0.01 | 0.00 | 47 | 1013.6 |
| 20260507130625 | 70 | 228 | 1.7 | 4.3 | 0.00 | 0.01 | 0.00 | 47 | 1013.8 |
| 20260507130123 | 69 | 193 | 1.7 | 5.2 | 0.00 | 0.01 | 0.00 | 47 | 1013.8 |
| 20260507125623 | 70 | 215 | 2.6 | 6.1 | 0.00 | 0.01 | 0.00 | 46 | 1013.8 |
| 20260507125121 | 70 | 226 | 1.7 | 6.1 | 0.00 | 0.01 | 0.00 | 45 | 1013.8 |
| 20260507124622 | 71 | 205 | 1.7 | 6.1 | 0.00 | 0.01 | 0.00 | 45 | 1013.8 |
| 20260507124121 | 71 | 52 | 1.7 | 5.2 | 0.00 | 0.01 | 0.00 | 45 | 1013.8 |
| 20260507123622 | 71 | 146 | 1.7 | 4.3 | 0.00 | 0.01 | 0.00 | 44 | 1013.9 |
| 20260507123121 | 72 | 210 | 0.9 | 5.2 | 0.00 | 0.01 | 0.00 | 44 | 1013.9 |
| 20260507122621 | 71 | 248 | 1.7 | 5.2 | 0.00 | 0.01 | 0.00 | 46 | 1013.9 |
| 20260507122121 | 70 | 212 | 1.7 | 5.2 | 0.00 | 0.01 | 0.00 | 46 | 1013.9 |
| 20260507121622 | 70 | 205 | 1.7 | 7.0 | 0.00 | 0.01 | 0.00 | 47 | 1013.9 |
| 20260507121121 | 69 | 209 | 1.7 | 7.0 | 0.00 | 0.01 | 0.00 | 49 | 1014.1 |
| 20260507120621 | 68 | 158 | 1.7 | 7.0 | 0.00 | 0.01 | 0.00 | 49 | 1014.2 |
| 20260507120121 | 68 | 250 | 2.6 | 7.8 | 0.00 | 0.01 | 0.00 | 48 | 1014.2 |
| 20260507115621 | 68 | 146 | 3.5 | 7.8 | 0.00 | 0.01 | 0.00 | 48 | 1014.3 |
| 20260507115121 | 69 | 226 | 2.6 | 7.0 | 0.00 | 0.01 | 0.00 | 46 | 1014.2 |
| 20260507114619 | 70 | 212 | 2.6 | 9.6 | 0.00 | 0.01 | 0.00 | 46 | 1014.2 |
| 20260507114119 | 69 | 198 | 2.6 | 9.6 | 0.00 | 0.01 | 0.00 | 48 | 1014.2 |
| 20260507113619 | 69 | 256 | 1.7 | 7.0 | 0.00 | 0.01 | 0.00 | 48 | 1014.3 |
| 20260507113120 | 69 | 240 | 1.7 | 6.1 | 0.00 | 0.01 | 0.00 | 49 | 1014.3 |
| 20260507112617 | 68 | 262 | 2.6 | 9.6 | 0.00 | 0.01 | 0.00 | 50 | 1014.6 |
| 20260507112117 | 68 | 224 | 2.6 | 10.4 | 0.00 | 0.01 | 0.00 | 50 | 1014.4 |
| 20260507111615 | 68 | 162 | 2.6 | 10.4 | 0.00 | 0.01 | 0.00 | 52 | 1014.6 |
| 20260507111114 | 67 | 153 | 2.6 | 7.8 | 0.00 | 0.01 | 0.00 | 53 | 1014.6 |
| 20260507110615 | 66 | 219 | 2.6 | 7.8 | 0.00 | 0.01 | 0.00 | 53 | 1014.6 |
| 20260507110115 | 66 | 234 | 3.5 | 7.8 | 0.00 | 0.01 | 0.00 | 52 | 1014.8 |
| 20260507105614 | 66 | 203 | 3.5 | 8.7 | 0.00 | 0.01 | 0.00 | 53 | 1014.8 |
| 20260507105113 | 66 | 236 | 2.6 | 8.7 | 0.00 | 0.01 | 0.00 | 53 | 1014.9 |
| 20260507104613 | 66 | 152 | 3.5 | 8.7 | 0.00 | 0.01 | 0.00 | 54 | 1014.9 |
| 20260507104113 | 66 | 205 | 3.5 | 8.7 | 0.00 | 0.01 | 0.00 | 54 | 1015.0 |
| 20260507103613 | 66 | 230 | 1.7 | 7.0 | 0.00 | 0.01 | 0.00 | 54 | 1015.0 |
| 20260507103113 | 66 | 223 | 1.7 | 7.0 | 0.00 | 0.01 | 0.00 | 53 | 1015.0 |
| 20260507102613 | 66 | 198 | 0.9 | 5.2 | 0.00 | 0.01 | 0.00 | 54 | 1015.0 |
| 20260507102111 | 65 | 211 | 1.7 | 6.1 | 0.00 | 0.01 | 0.00 | 54 | 1015.0 |
| 20260507101611 | 65 | 224 | 1.7 | 6.1 | 0.00 | 0.01 | 0.00 | 55 | 1015.1 |
| 20260507101109 | 65 | 266 | 1.7 | 6.1 | 0.00 | 0.01 | 0.00 | 54 | 1015.1 |
| 20260507100607 | 65 | 198 | 2.6 | 6.1 | 0.00 | 0.01 | 0.00 | 54 | 1015.0 |
| 20260507100106 | 65 | 179 | 2.6 | 6.1 | 0.00 | 0.01 | 0.00 | 54 | 1015.0 |
| 20260507095607 | 65 | 214 | 1.7 | 5.2 | 0.00 | 0.01 | 0.00 | 54 | 1014.9 |
| 20260507095107 | 66 | 228 | 0.9 | 5.2 | 0.00 | 0.01 | 0.00 | 55 | 1014.9 |
| 20260507094607 | 65 | 123 | 1.7 | 4.3 | 0.00 | 0.01 | 0.00 | 56 | 1014.8 |
| 20260507094109 | 65 | 199 | 0.9 | 5.2 | 0.00 | 0.01 | 0.00 | 55 | 1014.8 |
| 20260507093608 | 64 | 149 | 0.9 | 5.2 | 0.00 | 0.01 | 0.00 | 57 | 1014.9 |
| 20260507093107 | 64 | 275 | 1.7 | 7.0 | 0.00 | 0.01 | 0.00 | 57 | 1015.0 |
| 20260507092607 | 63 | 191 | 2.6 | 7.0 | 0.00 | 0.01 | 0.00 | 57 | 1015.0 |
| 20260507092107 | 63 | 241 | 2.6 | 9.6 | 0.00 | 0.01 | 0.00 | 57 | 1014.8 |
| 20260507091613 | 63 | 198 | 2.6 | 9.6 | 0.00 | 0.01 | 0.00 | 57 | 1014.8 |
| 20260507091106 | 63 | 266 | 3.5 | 9.6 | 0.00 | 0.01 | 0.00 | 57 | 1014.7 |
| 20260507090608 | 64 | 76 | 3.5 | 10.4 | 0.00 | 0.01 | 0.00 | 56 | 1014.6 |
| 20260507090106 | 64 | 221 | 3.5 | 12.2 | 0.00 | 0.01 | 0.00 | 57 | 1014.6 |
| 20260507085606 | 64 | 219 | 3.5 | 12.2 | 0.00 | 0.01 | 0.00 | 56 | 1014.4 |
| 20260507085107 | 64 | 229 | 3.5 | 9.6 | 0.00 | 0.01 | 0.00 | 57 | 1014.4 |
| 20260507084607 | 64 | 251 | 4.3 | 9.6 | 0.00 | 0.01 | 0.00 | 57 | 1014.3 |
| 20260507084107 | 64 | 251 | 4.3 | 12.2 | 0.00 | 0.01 | 0.00 | 57 | 1014.2 |
| 20260507083606 | 64 | 208 | 3.5 | 12.2 | 0.00 | 0.01 | 0.00 | 56 | 1014.1 |
| 20260507083107 | 64 | 227 | 2.6 | 7.8 | 0.00 | 0.01 | 0.00 | 58 | 1014.1 |
| 20260507082607 | 64 | 135 | 2.6 | 7.8 | 0.00 | 0.01 | 0.00 | 56 | 1014.0 |
| 20260507082103 | 63 | 209 | 1.7 | 10.4 | 0.00 | 0.01 | 0.00 | 59 | 1014.1 |
| 20260507081603 | 62 | 213 | 2.6 | 10.4 | 0.00 | 0.01 | 0.00 | 60 | 1014.0 |
| 20260507081103 | 62 | 124 | 2.6 | 13.0 | 0.00 | 0.01 | 0.00 | 60 | 1014.1 |
| 20260507080603 | 62 | 230 | 2.6 | 13.0 | 0.00 | 0.01 | 0.00 | 61 | 1014.1 |
| 20260507080103 | 61 | 266 | 2.6 | 7.8 | 0.00 | 0.01 | 0.00 | 61 | 1014.1 |
| 20260507075603 | 61 | 252 | 3.5 | 8.7 | 0.00 | 0.01 | 0.00 | 61 | 1014.0 |
| 20260507075103 | 61 | 249 | 3.5 | 11.3 | 0.00 | 0.01 | 0.00 | 61 | 1013.9 |
| 20260507074603 | 61 | 243 | 4.3 | 15.6 | 0.00 | 0.01 | 0.00 | 61 | 1013.8 |
| 20260507074103 | 61 | 220 | 3.5 | 15.6 | 0.00 | 0.01 | 0.00 | 62 | 1013.7 |
| 20260507073559 | 61 | 93 | 3.5 | 9.6 | 0.00 | 0.01 | 0.00 | 63 | 1013.5 |
| 20260507073059 | 60 | 225 | 3.5 | 8.7 | 0.00 | 0.01 | 0.00 | 64 | 1013.4 |
| 20260507072558 | 60 | 240 | 2.6 | 8.7 | 0.00 | 0.01 | 0.00 | 64 | 1013.4 |
| 20260507072058 | 60 | 238 | 1.7 | 10.4 | 0.00 | 0.01 | 0.00 | 66 | 1013.4 |
| 20260507071558 | 60 | 248 | 1.7 | 10.4 | 0.00 | 0.01 | 0.00 | 65 | 1013.4 |
| 20260507071059 | 59 | 222 | 2.6 | 9.6 | 0.00 | 0.01 | 0.00 | 66 | 1013.5 |
| 20260507070559 | 59 | 257 | 2.6 | 8.7 | 0.00 | 0.01 | 0.00 | 66 | 1013.4 |
| 20260507070059 | 59 | 232 | 3.5 | 10.4 | 0.00 | 0.01 | 0.00 | 66 | 1013.3 |
| 20260507065559 | 59 | 233 | 4.3 | 12.2 | 0.00 | 0.01 | 0.00 | 66 | 1013.2 |
| 20260507065055 | 59 | 173 | 4.3 | 12.2 | 0.00 | 0.01 | 0.00 | 66 | 1013.1 |
| 20260507064555 | 59 | 191 | 4.3 | 12.2 | 0.00 | 0.01 | 0.00 | 66 | 1013.2 |
| 20260507064055 | 59 | 182 | 4.3 | 12.2 | 0.00 | 0.01 | 0.00 | 66 | 1013.2 |
| 20260507063555 | 59 | 160 | 4.3 | 10.4 | 0.00 | 0.01 | 0.00 | 66 | 1013.2 |
| 20260507063055 | 59 | 186 | 5.2 | 14.8 | 0.00 | 0.01 | 0.00 | 66 | 1013.1 |
| 20260507062554 | 59 | 221 | 5.2 | 14.8 | 0.00 | 0.01 | 0.00 | 66 | 1012.9 |
| 20260507062055 | 59 | 268 | 6.1 | 13.0 | 0.00 | 0.01 | 0.00 | 66 | 1012.9 |
| 20260507061555 | 59 | 226 | 6.1 | 13.0 | 0.00 | 0.01 | 0.00 | 66 | 1012.9 |
| 20260507061055 | 59 | 229 | 5.2 | 13.0 | 0.00 | 0.01 | 0.00 | 66 | 1012.8 |
| 20260507060555 | 58 | 236 | 5.2 | 13.0 | 0.00 | 0.01 | 0.00 | 67 | 1012.7 |
| 20260507060055 | 58 | 206 | 5.2 | 9.6 | 0.00 | 0.01 | 0.00 | 67 | 1012.7 |
| 20260507055555 | 58 | 198 | 5.2 | 10.4 | 0.00 | 0.01 | 0.00 | 68 | 1012.6 |
| 20260507055055 | 58 | 179 | 5.2 | 13.0 | 0.00 | 0.01 | 0.00 | 68 | 1012.6 |
| 20260507054554 | 58 | 208 | 6.1 | 13.0 | 0.00 | 0.01 | 0.00 | 68 | 1012.6 |
| 20260507054054 | 58 | 233 | 6.1 | 11.3 | 0.00 | 0.01 | 0.00 | 68 | 1012.5 |
| 20260507053554 | 58 | 155 | 5.2 | 12.2 | 0.00 | 0.01 | 0.00 | 68 | 1012.4 |
| 20260507053054 | 58 | 223 | 6.1 | 12.2 | 0.00 | 0.01 | 0.00 | 68 | 1012.3 |
| 20260507052554 | 58 | 230 | 5.2 | 12.2 | 0.00 | 0.01 | 0.00 | 68 | 1012.3 |
| 20260507052054 | 58 | 151 | 5.2 | 12.2 | 0.00 | 0.01 | 0.00 | 68 | 1012.3 |
| 20260507051555 | 58 | 231 | 5.2 | 12.2 | 0.00 | 0.01 | 0.00 | 68 | 1012.3 |
| 20260507051055 | 58 | 213 | 5.2 | 12.2 | 0.00 | 0.01 | 0.00 | 68 | 1012.2 |
| 20260507050555 | 58 | 128 | 6.1 | 12.2 | 0.00 | 0.01 | 0.00 | 68 | 1012.2 |
| 20260507050054 | 58 | 93 | 5.2 | 11.3 | 0.00 | 0.01 | 0.00 | 68 | 1012.1 |
| 20260507045553 | 58 | 131 | 5.2 | 11.3 | 0.00 | 0.01 | 0.00 | 68 | 1012.1 |
| 20260507045053 | 58 | 212 | 6.1 | 11.3 | 0.00 | 0.01 | 0.00 | 68 | 1011.8 |
| 20260507044549 | 58 | 189 | 5.2 | 11.3 | 0.00 | 0.01 | 0.00 | 68 | 1011.8 |
| 20260507044049 | 58 | 203 | 5.2 | 11.3 | 0.00 | 0.01 | 0.00 | 68 | 1011.9 |
| 20260507043548 | 58 | 143 | 6.1 | 17.4 | 0.00 | 0.01 | 0.00 | 68 | 1011.8 |
| 20260507043049 | 58 | 231 | 6.1 | 17.4 | 0.00 | 0.01 | 0.00 | 68 | 1011.9 |
| 20260507042547 | 58 | 213 | 6.1 | 14.8 | 0.00 | 0.01 | 0.00 | 67 | 1011.7 |
| 20260507042048 | 58 | 140 | 5.2 | 14.8 | 0.00 | 0.01 | 0.00 | 67 | 1011.7 |
| 20260507041540 | 58 | 268 | 4.3 | 11.3 | 0.00 | 0.01 | 0.00 | 67 | 1011.6 |
| 20260507041039 | 58 | 156 | 5.2 | 10.4 | 0.00 | 0.01 | 0.00 | 68 | 1011.6 |
| 20260507040537 | 58 | 142 | 6.1 | 11.3 | 0.00 | 0.01 | 0.00 | 68 | 1011.4 |
| 20260507040037 | 58 | 198 | 6.1 | 13.9 | 0.00 | 0.01 | 0.00 | 68 | 1011.4 |
| 20260507035536 | 58 | 209 | 6.1 | 13.9 | 0.00 | 0.01 | 0.00 | 68 | 1011.4 |
| 20260507035035 | 58 | 252 | 6.1 | 13.9 | 0.00 | 0.01 | 0.00 | 68 | 1011.4 |
| 20260507034535 | 58 | 247 | 6.1 | 15.6 | 0.00 | 0.01 | 0.00 | 68 | 1011.4 |
| 20260507034035 | 58 | 203 | 6.1 | 15.6 | 0.00 | 0.01 | 0.00 | 68 | 1011.4 |
| 20260507033533 | 58 | 174 | 6.1 | 14.8 | 0.00 | 0.01 | 0.00 | 68 | 1011.4 |
| 20260507033033 | 58 | 165 | 6.1 | 14.8 | 0.00 | 0.01 | 0.00 | 68 | 1011.3 |
| 20260507032533 | 58 | 209 | 6.1 | 13.9 | 0.00 | 0.01 | 0.00 | 68 | 1011.3 |
| 20260507032031 | 58 | 37 | 6.1 | 12.2 | 0.00 | 0.01 | 0.00 | 68 | 1011.3 |
| 20260507031531 | 58 | 204 | 5.2 | 10.4 | 0.00 | 0.01 | 0.00 | 68 | 1011.3 |
| 20260507031031 | 58 | 131 | 5.2 | 10.4 | 0.00 | 0.01 | 0.00 | 68 | 1011.2 |
| 20260507030530 | 59 | 261 | 4.3 | 12.2 | 0.00 | 0.01 | 0.00 | 68 | 1011.3 |
| 20260507030025 | 59 | 194 | 4.3 | 12.2 | 0.00 | 0.01 | 0.00 | 68 | 1011.1 |
| 20260507025517 | 59 | 203 | 4.3 | 9.6 | 0.00 | 0.01 | 0.00 | 68 | 1011.1 |
| 20260507025012 | 59 | 207 | 5.2 | 10.4 | 0.00 | 0.01 | 0.00 | 68 | 1011.1 |
| 20260507024506 | 59 | 213 | 5.2 | 11.3 | 0.00 | 0.01 | 0.00 | 68 | 1011.1 |
| 20260507024000 | 59 | 154 | 6.1 | 11.3 | 0.00 | 0.01 | 0.00 | 68 | 1011.0 |
| 20260507023454 | 59 | 205 | 7.0 | 12.2 | 0.00 | 0.01 | 0.00 | 69 | 1011.0 |
| 20260507022948 | 59 | 181 | 6.1 | 12.2 | 0.00 | 0.01 | 0.00 | 69 | 1010.9 |
| 20260507022441 | 59 | 146 | 4.3 | 10.4 | 0.00 | 0.01 | 0.00 | 69 | 1011.0 |
| 20260507021937 | 59 | 224 | 5.2 | 12.2 | 0.00 | 0.01 | 0.00 | 69 | 1010.9 |
| 20260507021430 | 59 | 203 | 5.2 | 12.2 | 0.00 | 0.01 | 0.00 | 69 | 1010.9 |
| 20260507020924 | 59 | 259 | 5.2 | 12.2 | 0.00 | 0.01 | 0.00 | 70 | 1010.8 |
| 20260507020418 | 59 | 188 | 5.2 | 12.2 | 0.00 | 0.01 | 0.00 | 70 | 1010.8 |
| 20260507015912 | 59 | 174 | 4.3 | 10.4 | 0.00 | 0.01 | 0.00 | 71 | 1010.8 |
| 20260507015407 | 59 | 89 | 5.2 | 10.4 | 0.00 | 0.01 | 0.00 | 71 | 1010.9 |
| 20260507014859 | 59 | 160 | 4.3 | 10.4 | 0.00 | 0.01 | 0.00 | 71 | 1011.0 |
| 20260507014354 | 59 | 250 | 3.5 | 10.4 | 0.00 | 0.01 | 0.00 | 71 | 1011.0 |
| 20260507013848 | 59 | 187 | 3.5 | 9.6 | 0.00 | 0.01 | 0.00 | 71 | 1010.9 |
| 20260507013342 | 59 | 216 | 4.3 | 9.6 | 0.00 | 0.01 | 0.00 | 71 | 1010.8 |
| 20260507012837 | 60 | 219 | 4.3 | 8.7 | 0.00 | 0.01 | 0.00 | 71 | 1010.7 |
| 20260507012331 | 60 | 178 | 4.3 | 9.6 | 0.00 | 0.01 | 0.00 | 71 | 1010.8 |
| 20260507011829 | 60 | 200 | 5.2 | 11.3 | 0.00 | 0.01 | 0.00 | 71 | 1010.7 |
| 20260507011329 | 60 | 163 | 5.2 | 11.3 | 0.00 | 0.01 | 0.00 | 71 | 1010.6 |
| 20260507010828 | 60 | 226 | 4.3 | 10.4 | 0.00 | 0.01 | 0.00 | 71 | 1010.6 |
| 20260507010329 | 60 | 218 | 5.2 | 12.2 | 0.00 | 0.01 | 0.00 | 70 | 1010.7 |
| 20260507005829 | 60 | 219 | 6.1 | 12.2 | 0.00 | 0.01 | 0.00 | 70 | 1010.6 |
| 20260507005328 | 60 | 193 | 6.1 | 12.2 | 0.00 | 0.01 | 0.00 | 70 | 1010.4 |
| 20260507004829 | 60 | 159 | 6.1 | 12.2 | 0.00 | 0.01 | 0.00 | 70 | 1010.4 |
| 20260507004329 | 60 | 190 | 7.0 | 13.0 | 0.00 | 0.01 | 0.00 | 70 | 1010.3 |
| 20260507003829 | 60 | 186 | 7.0 | 14.8 | 0.00 | 0.01 | 0.00 | 70 | 1010.2 |
| 20260507003328 | 60 | 169 | 6.1 | 14.8 | 0.00 | 0.01 | 0.00 | 70 | 1010.1 |
| 20260507002829 | 60 | 210 | 6.1 | 12.2 | 0.00 | 0.01 | 0.00 | 70 | 1010.0 |
| 20260507002329 | 61 | 166 | 7.0 | 14.8 | 0.00 | 0.01 | 0.00 | 70 | 1010.0 |
| 20260507001829 | 61 | 165 | 7.0 | 14.8 | 0.00 | 0.01 | 0.00 | 70 | 1010.1 |
| 20260507001329 | 61 | 292 | 6.1 | 13.9 | 0.00 | 0.01 | 0.00 | 70 | 1010.1 |
| 20260507000829 | 61 | 229 | 4.3 | 13.0 | 0.00 | 0.01 | 0.00 | 70 | 1009.9 |
| 20260507000329 | 61 | 127 | 4.3 | 13.0 | 0.00 | 0.01 | 0.00 | 70 | 1010.0 |
| 20260506235828 | 61 | 216 | 4.3 | 9.6 | 0.00 | 0.01 | 0.00 | 71 | 1009.9 |
| 20260506235323 | 62 | 158 | 4.3 | 13.9 | 0.00 | 0.01 | 0.00 | 71 | 1010.0 |
| 20260506234816 | 62 | 228 | 4.3 | 13.9 | 0.00 | 0.01 | 0.00 | 71 | 1009.9 |
| 20260506234310 | 62 | 195 | 4.3 | 10.4 | 0.00 | 0.01 | 0.00 | 72 | 1009.9 |
| 20260506233805 | 62 | 180 | 4.3 | 12.2 | 0.00 | 0.01 | 0.00 | 72 | 1009.8 |
| 20260506233258 | 62 | 213 | 4.3 | 12.2 | 0.00 | 0.01 | 0.00 | 72 | 1009.8 |
| 20260506232752 | 62 | 256 | 5.2 | 11.3 | 0.00 | 0.01 | 0.00 | 72 | 1009.8 |
| 20260506232246 | 62 | 245 | 5.2 | 11.3 | 0.00 | 0.01 | 0.00 | 72 | 1009.8 |
| 20260506231740 | 62 | 297 | 4.3 | 9.6 | 0.00 | 0.01 | 0.00 | 72 | 1009.8 |
| 20260506231236 | 62 | 211 | 5.2 | 15.6 | 0.00 | 0.01 | 0.00 | 72 | 1009.7 |
| 20260506230736 | 62 | 173 | 6.1 | 15.6 | 0.00 | 0.01 | 0.00 | 72 | 1009.4 |
| 20260506230236 | 62 | 210 | 6.1 | 13.0 | 0.00 | 0.01 | 0.00 | 71 | 1009.3 |
| 20260506225737 | 62 | 176 | 6.1 | 13.0 | 0.00 | 0.01 | 0.00 | 70 | 1009.2 |
| 20260506225236 | 63 | 219 | 7.0 | 14.8 | 0.00 | 0.01 | 0.00 | 70 | 1009.1 |
| 20260506224736 | 63 | 167 | 7.0 | 14.8 | 0.00 | 0.01 | 0.00 | 69 | 1009.2 |
| 20260506224237 | 63 | 234 | 5.2 | 12.2 | 0.00 | 0.01 | 0.00 | 68 | 1009.1 |
| 20260506223736 | 63 | 209 | 4.3 | 12.2 | 0.00 | 0.01 | 0.00 | 67 | 1009.1 |
| 20260506223237 | 63 | 243 | 4.3 | 9.6 | 0.00 | 0.01 | 0.00 | 66 | 1008.9 |
| 20260506222735 | 64 | 214 | 3.5 | 7.8 | 0.00 | 0.01 | 0.00 | 66 | 1008.8 |
| 20260506222235 | 64 | 242 | 2.6 | 8.7 | 0.00 | 0.01 | 0.00 | 65 | 1008.6 |
| 20260506221734 | 64 | 216 | 2.6 | 8.7 | 0.00 | 0.01 | 0.00 | 65 | 1008.5 |
| 20260506221235 | 64 | 220 | 2.6 | 6.1 | 0.00 | 0.01 | 0.00 | 65 | 1008.5 |
| 20260506220735 | 64 | 257 | 2.6 | 7.0 | 0.00 | 0.01 | 0.00 | 65 | 1007.9 |
| 20260506220718 | 64 | 123 | 1.7 | 7.0 | 0.00 | 0.01 | 0.00 | 65 | 1008.0 |
| 20260506220222 | 64 | 205 | 0.0 | 1.7 | 0.00 | 0.01 | 0.01 | 65 | 1007.8 |
| 20260506215232 | 65 | 199 | 0.0 | 2.6 | 0.00 | 0.01 | 0.01 | 65 | 1007.5 |
| 20260506214729 | 65 | 219 | 0.0 | 2.6 | 0.00 | 0.01 | 0.01 | 64 | 1007.5 |
| 20260506214224 | 65 | 236 | 0.0 | 1.7 | 0.00 | 0.01 | 0.01 | 64 | 1007.4 |
| 20260506213717 | 65 | 236 | 0.9 | 4.3 | 0.00 | 0.01 | 0.01 | 64 | 1007.4 |
| 20260506213210 | 65 | 233 | 0.9 | 4.3 | 0.00 | 0.01 | 0.01 | 64 | 1007.3 |
| 20260506212705 | 66 | 143 | 1.7 | 7.8 | 0.00 | 0.01 | 0.01 | 63 | 1007.3 |
| 20260506212159 | 66 | 93 | 4.3 | 12.2 | 0.00 | 0.01 | 0.01 | 62 | 1007.1 |
| 20260506212135 | 66 | 86 | 6.1 | 13.9 | 0.00 | 0.01 | 0.01 | 62 | 1006.9 |